Location: Beuvrequen
(50.8014°N, 1.6652°E)
Time: 03:39:37
(UTC+00:00)

Cosmos 1535 Rocket - Pass Details

Date: 16 October 2021
Orbit: 949 x 1004 km, 83.0° (Epoch: 28 November)

Event Time Altitude Azimuth Distance (km) Brightness Sun altitude
Rises 18:54:41 0° 180° (S) 3,648 7.4 -19.1°
Reaches altitude 10° 18:57:10 10° 179° (S) 2,713 6.7 -19.4°
Maximum altitude 19:03:22 73° 95° (E) 1,029 4.4 -20.4°
Drops below altitude 10° 19:09:42 10° 13° (NNE) 2,769 6.9 -21.4°
Sets 19:12:15 0° 12° (NNE) 3,729 7.6 -21.8°
